{"data":{"norad_id":61951,"epoch":"2026-09-21T22:48:29.228256Z","epoch_age_seconds":60334,"freshness":"FRESH","line1":"1 61951U 24209N   26264.95033829  .00122368  00000+0  10018-2 0  9991","line2":"2 61951  53.1564 123.7092 0000812  35.1603 324.9468 15.69668699107505","mean_motion":15.69668699,"eccentricity":8.12e-5,"inclination_deg":53.1564,"raan_deg":123.7092,"arg_perigee_deg":35.1603,"mean_anomaly_deg":324.9468,"bstar":0.0010018,"rev_number":10750,"period_min":91.73910398528,"perigee_km":359.29781653046,"apogee_km":360.39206479762,"semimajor_km":6737.981940664,"source":"CELESTRAK","updated_at":"2026-09-22T09:00:49.456006Z"}}